Dewpoint
48 48 48 49 50 50 50 49 49 49 50 48 47 46 41 39 35 35 36 38 36 34 38 41 40 33 33 32 31 29 27 24 22 19 18 17 18 18 18 18 18 18 17 15 14 15 20 25 17 11 11 12 13 14 14 13 12 11 11 11 11 46 14 23 21 28 26 18 14 13 14 12 15 14 14 13 15 18 20 25 31 20 30 25 29 33 29
48 48 48 49 50 49 50 49 49 50 50 49 48 44 41 41 40 40 42 42 35 33 34 37 36 35 33 31 28 27 26 24 22 20 17 16 16 17 18 19 18 17 16 15 16 25 22 27 26 27 20 12 14 14 14 13 11 11 14 10 19 20 22 17 19 17 17 17 20 12 14 15 15 17 15 13 14 15 27 37 36 23 28 25 27 25 27
48 49 50 50 50 49 49 49 49 50 50 50 48 43 43 42 43 42 43 49 36 25 27 32 36 36 34 31 28 26 25 23 22 21 19 19 17 17 17 18 17 17 17 17 18 24 24 29 22 23 24 24 16 14 13 13 11 11 21 47 14 15 27 20 13 17 16 17 16 16 15 17 16 23 14 13 11 14 23 18 26 18 34 35 29 30 34
48 49 49 49 49 49 49 49 49 50 50 50 48 45 43 40 37 38 36 34 36 36 35 33 31 34 35 33 32 31 29 27 22 21 19 19 18 17 17 18 19 18 18 17 18 26 25 23 28 31 33 39 33 34 36 27 12 36 51 46 18 25 34 25 19 17 21 22 27 26 29 20 13 12 12 13 12 12 22 32 26 20 32 30 32 32 35
48 48 49 49 49 48 48 49 49 50 50 50 48 46 43 43 41 33 29 29 34 31 35 30 28 26 29 34 33 32 30 28 26 26 20 19 17 17 17 24 31 30 30 26 27 28 28 29 31 27 39 38 36 35 39 37 41 57 50 47 12 31 25 24 27 23 21 24 37 39 25 13 12 12 11 12 13 17 19 21 24 34 30 24 34 39 34
48 48 48 48 48 48 49 49 49 50 50 50 48 44 45 40 41 34 32 28 28 29 30 29 29 32 35 35 35 34 34 33 29 25 23 23 21 17 20 19 24 25 28 33 27 35 36 42 38 42 40 40 35 35 35 34 50 47 38 39 16 27 15 22 22 18 18 15 21 25 20 14 13 12 11 11 13 18 19 29 26 35 25 23 34 39 34
48 48 48 48 48 49 49 49 49 50 49 49 47 44 46 42 40 37 37 32 31 32 31 33 34 34 32 36 36 35 34 33 32 27 22 21 23 19 24 26 26 32 33 31 36 41 38 38 46 44 39 39 38 35 36 37 34 32 30 37 39 25 15 24 23 21 21 21 21 22 17 16 12 12 17 17 14 15 17 25 33 30 33 32 35 39 34
48 48 48 48 49 49 49 49 49 50 49 47 42 41 40 41 40 39 41 39 37 36 35 35 34 32 37 40 35 31 27 27 36 36 35 35 31 37 36 35 33 34 33 33 34 45 43 43 42 47 43 36 43 37 41 34 33 32 34 32 34 30 28 36 22 23 22 20 23 20 15 15 14 16 16 17 17 18 18 19 33 35 34 39 36 40 37
49 49 48 48 49 49 49 49 50 50 50 43 42 41 41 41 41 42 41 39 36 38 36 36 36 36 37 36 32 29 25 28 40 40 39 40 38 37 37 35 35 35 37 39 46 40 44 43 41 39 42 37 39 39 37 33 33 33 32 34 36 34 29 35 25 22 22 22 20 18 17 14 13 22 25 23 19 27 31 31 31 35 37 44 39 38 37
49 49 48 48 49 49 49 49 50 50 49 45 43 41 43 43 43 42 42 37 41 34 36 34 35 37 38 36 34 27 23 32 39 41 42 44 41 40 40 38 37 39 43 38 38 34 35 35 35 35 35 36 35 35 33 33 36 34 37 38 34 32 32 24 26 20 25 23 20 18 17 18 23 31 22 29 30 29 31 35 40 39 36 42 39 37 38
49 48 48 48 48 49 49 50 50 50 49 46 44 43 43 42 41 41 41 35 35 35 34 33 33 37 33 34 34 32 27 37 35 37 42 38 39 42 40 39 40 41 44 36 36 35 35 35 35 36 36 34 33 33 33 34 34 32 39 39 39 43 36 27 28 18 28 25 22 31 24 23 22 36 34 34 28 30 31 37 41 43 47 43 40 42 46
49 49 48 48 49 49 49 50 50 50 49 49 49 45 45 44 43 42 40 35 35 35 35 35 35 34 33 35 34 34 31 29 31 31 32 38 42 40 39 39 40 42 40 41 37 35 37 40 38 38 37 37 35 33 32 33 33 41 33 35 38 41 43 37 38 29 27 32 25 20 16 26 39 46 39 30 32 34 36 39 40 39 42 41 42 43 44
49 49 48 49 49 49 49 49 51 50 50 50 49 45 46 46 44 42 41 38 36 36 34 35 35 35 35 35 32 32 28 31 31 35 32 33 36 34 35 38 38 39 39 39 35 38 38 41 41 46 40 37 35 34 31 33 32 31 30 36 39 38 33 36 36 38 33 32 31 14 26 38 42 43 37 41 38 39 36 36 37 42 40 42 41 44 43
49 48 48 49 49 49 49 49 50 51 50 50 48 47 46 45 43 42 40 37 38 37 37 35 36 34 33 34 31 28 29 31 33 34 35 35 34 36 36 37 35 36 36 36 40 43 40 42 37 37 36 37 39 33 35 32 30 31 30 31 38 42 44 38 31 38 28 32 33 29 40 35 35 38 35 32 33 37 33 32 37 45 46 42 39 40 42
49 49 49 49 49 49 49 49 50 50 51 50 49 47 46 45 45 43 44 42 39 39 37 35 35 33 34 33 30 27 30 32 31 33 38 38 37 37 37 36 34 33 34 37 37 46 38 39 35 36 36 38 31 35 33 35 36 34 31 31 38 41 31 38 31 30 36 29 28 30 29 26 33 40 41 39 36 35 39 37 36 42 41 47 43 41 42
49 49 50 50 50 50 49 48 49 51 50 49 49 47 46 46 46 45 44 43 40 35 36 37 36 34 34 32 31 27 28 31 30 37 43 43 39 39 38 36 34 35 41 36 44 38 42 35 36 33 31 36 38 33 37 31 34 36 31 31 34 39 42 40 33 35 37 35 28 26 27 31 40 41 39 39 39 32 37 37 35 40 42 47 45 41 41
49 49 49 49 49 49 49 49 49 50 50 49 48 47 46 47 45 44 43 43 40 37 38 39 37 36 34 32 30 28 27 34 32 43 44 42 40 38 36 34 35 40 45 41 40 35 36 38 40 37 39 37 41 38 37 32 34 35 38 39 36 39 43 37 31 36 41 37 31 29 33 37 43 43 40 37 39 39 34 27 34 43 45 47 47 43 43
50 49 50 50 49 49 49 48 49 50 50 51 49 47 46 46 46 45 45 43 41 40 39 39 38 37 34 34 31 30 26 32 35 41 49 48 43 36 34 35 34 39 47 47 46 39 35 36 34 34 33 39 36 34 36 42 38 39 42 43 43 43 42 41 36 38 40 39 33 33 37 47 46 42 42 42 41 41 34 29 38 45 48 47 47 46 46
50 50 48 49 49 49 48 49 49 49 49 49 49 47 45 46 45 45 44 44 43 38 40 40 40 38 38 35 31 30 28 27 33 34 30 31 48 45 38 39 39 35 43 47 46 43 37 40 39 36 32 38 35 35 43 39 42 43 44 42 38 44 47 47 44 42 40 40 37 34 39 44 44 45 45 45 36 34 35 41 48 50 49 50 48 47 48
50 49 49 48 49 49 49 49 49 48 49 50 49 46 46 46 46 46 43 41 42 41 42 41 40 38 37 35 33 31 32 32 36 33 32 28 36 39 49 38 45 37 45 46 45 46 43 41 40 39 32 34 41 51 44 44 47 46 44 46 43 48 42 40 42 45 45 44 40 34 30 42 46 47 47 50 42 41 43 46 52 50 49 49 50 50 51
50 49 48 47 49 49 49 48 48 48 49 49 50 47 44 46 45 45 44 44 43 41 40 40 39 37 38 38 37 35 34 33 33 29 34 33 36 37 34 42 47 41 46 46 44 44 44 42 44 44 41 48 50 46 40 43 46 47 46 48 47 51 44 43 47 48 41 42 36 35 41 46 47 48 43 48 53 51 57 49 47 51 50 48 49 51 53
49 49 49 48 48 48 49 48 48 48 48 49 49 47 44 44 45 45 45 46 44 42 41 41 41 41 40 40 39 38 37 37 37 34 33 32 38 33 36 38 35 42 49 47 45 43 44 44 45 43 43 42 45 41 46 42 41 46 50 45 42 50 49 47 41 48 46 43 45 49 51 49 47 48 48 48 50 50 50 50 49 49 49 52 50 51 53
48 49 49 47 48 49 48 48 48 48 48 49 49 47 44 44 44 46 45 44 46 46 46 44 43 42 43 42 43 41 40 40 39 38 32 34 36 40 38 43 42 44 47 49 43 43 43 43 42 45 43 47 41 44 42 45 44 45 44 46 45 51 53 51 45 45 46 47 49 51 51 49 47 47 47 47 47 48 50 50 51 52 52 51 51 54 56
49 50 49 47 47 47 48 48 48 48 48 48 48 46 46 46 46 46 45 46 44 41 40 41 40 39 40 39 38 41 45 43 43 37 37 35 29 35 41 44 42 43 46 46 46 41 42 43 43 46 42 44 44 44 38 38 40 44 46 43 50 47 50 52 46 50 39 39 46 51 51 51 49 48 48 49 49 49 49 48 49 49 50 53 54 54 57
47 49 49 49 48 47 48 48 48 48 48 48 48 49 48 46 45 46 44 41 42 41 37 38 38 37 38 40 41 34 42 43 44 38 33 34 31 31 31 37 39 40 39 40 44 42 45 44 44 43 40 44 45 38 44 44 42 47 44 44 45 44 49 47 50 46 40 43 51 55 52 52 53 50 49 50 50 49 50 51 53 54 51 48 50 56 58
47 48 49 48 48 47 47 48 48 48 48 48 48 46 45 45 46 46 46 45 45 44 39 37 36 37 40 39 38 39 40 39 28 28 32 31 29 28 28 39 35 45 44 45 44 40 40 42 45 45 42 47 46 41 45 43 41 48 45 44 48 45 56 46 48 50 52 54 57 56 50 47 50 52 55 54 52 51 50 49 48 49 47 45 45 46 53
48 49 48 47 48 48 48 48 48 48 48 49 47 47 47 46 47 46 45 45 43 39 39 38 38 38 38 37 39 39 39 36 24 20 20 30 30 32 35 36 34 38 39 35 40 40 42 42 41 42 45 47 44 42 46 47 47 45 45 45 50 46 45 49 47 46 46 47 50 51 43 44 49 51 53 55 56 54 53 52 51 53 53 53 52 48 45
48 48 48 48 48 47 48 48 48 48 49 49 48 47 47 46 47 47 47 46 44 39 39 39 37 37 38 36 38 39 39 40 23 22 23 23 28 29 27 29 38 33 37 38 33 39 40 36 37 40 38 42 41 44 45 51 49 42 42 40 48 46 47 47 45 43 45 50 51 55 48 48 50 52 54 54 54 50 44 44 46 48 50 46 46 45 43
48 47 48 47 47 48 48 48 48 48 48 48 47 47 46 47 47 47 46 46 46 44 41 39 39 38 34 34 39 37 37 34 21 21 23 24 28 31 29 27 28 30 33 34 34 38 38 39 41 36 37 41 40 42 39 44 44 39 37 36 36 43 50 46 45 43 44 48 52 52 49 46 49 52 53 50 51 45 43 44 46 49 48 47 48 47 44
47 47 47 48 48 48 48 48 48 48 48 47 45 45 43 46 47 48 48 47 47 44 38 37 35 35 39 38 37 37 34 26 23 23 25 26 26 30 32 32 36 40 38 32 38 30 37 34 36 37 37 45 37 41 32 38 41 41 48 37 35 36 38 40 41 38 37 42 43 46 45 44 47 46 45 46 52 47 45 44 44 45 47 52 47 42 43
47 48 48 48 48 48 48 48 47 48 49 44 44 41 39 38 43 48 49 47 47 44 41 39 36 38 40 41 40 38 37 29 24 24 25 25 26 27 32 35 39 42 37 38 33 35 36 31 32 33 35 42 42 34 34 35 38 38 37 35 31 31 32 35 37 35 35 38 40 40 41 43 45 38 38 41 43 43 44 44 48 54 53 46 41 44 42
48 48 48 49 48 48 48 48 48 48 46 45 42 41 43 46 48 47 47 47 46 45 41 39 39 39 39 39 40 40 37 30 28 31 36 33 30 29 34 29 33 34 39 38 40 35 35 40 34 36 31 39 39 27 36 38 38 37 40 37 36 34 36 38 38 39 40 40 36 37 39 41 43 40 40 43 42 42 42 42 42 42 48 46 43 41 40
48 48 48 48 48 48 48 48 48 48 46 47 48 48 49 49 49 48 48 45 45 43 44 40 37 38 37 38 39 38 34 27 27 27 33 37 36 34 34 35 33 34 56 34 30 29 37 37 38 23 32 41 32 32 31 32 30 36 38 38 35 39 41 41 41 42 42 41 40 40 41 43 44 45 45 43 43 44 44 42 41 41 41 40 39 39 39
48 48 48 48 49 49 49 48 49 49 49 47 44 45 46 48 47 47 45 47 43 43 41 37 37 37 37 39 36 38 27 23 32 32 33 39 42 32 36 31 39 29 31 26 34 30 37 36 34 32 31 34 41 32 28 29 32 36 39 39 40 42 43 42 41 40 41 42 42 42 42 43 43 41 42 42 41 41 42 42 41 39 40 40 40 40 41
48 49 48 49 49 49 49 49 47 46 42 42 43 43 44 48 48 50 47 44 38 39 38 39 38 35 34 36 37 38 28 20 33 32 28 35 44 32 37 36 33 31 34 30 35 33 35 35 36 31 31 34 34 29 33 36 42 42 42 42 43 43 42 41 41 41 40 40 40 40 40 40 40 40 41 41 41 40 38 40 41 40 39 39 40 41 42
48 48 48 49 49 49 48 48 47 45 43 42 42 50 51 53 51 48 46 46 43 40 39 40 40 38 38 36 34 35 23 23 33 34 32 41 33 38 37 38 30 31 41 26 30 33 24 42 34 27 33 32 33 34 41 42 41 42 42 42 43 42 43 42 41 41 42 42 42 42 42 42 42 42 43 42 42 40 40 39 40 39 38 39 40 42 44
48 48 48 48 48 46 43 42 46 45 43 43 46 53 53 49 48 46 46 45 47 44 40 39 37 38 40 38 38 39 27 29 35 35 28 29 35 33 30 39 36 41 31 34 34 32 30 42 32 32 29 33 42 43 42 43 42 41 42 42 43 42 43 44 44 41 40 41 41 42 43 42 42 44 44 43 44 43 42 41 41 40 39 40 42 44 45
48 48 46 44 42 40 39 41 43 45 51 51 51 47 44 44 40 42 43 41 44 45 41 39 37 38 39 37 34 39 33 32 35 32 35 31 32 32 27 37 38 39 32 36 37 38 38 38 34 37 39 41 42 42 42 43 43 43 42 42 42 42 42 43 41 40 39 39 39 40 41 41 41 42 43 43 43 44 45 45 45 44 45 46 46 48 48
48 46 44 43 40 39 40 44 47 51 49 47 46 41 39 42 39 38 40 40 41 39 40 38 37 39 38 36 35 38 35 32 34 38 34 39 37 36 35 31 35 35 29 32 34 34 34 34 36 39 39 40 41 41 43 42 42 42 43 43 44 44 44 43 43 41 41 41 42 43 42 41 41 42 44 44 44 45 46 46 46 47 48 47 49 51 49
45 41 41 40 41 42 47 48 50 49 46 40 40 37 36 38 34 31 39 35 34 39 38 36 37 37 36 34 35 35 41 36 34 33 37 40 38 35 40 36 37 33 28 30 34 40 35 35 39 40 41 43 44 45 45 44 45 45 46 47 46 46 46 45 46 45 45 46 46 45 45 45 47 45 44 44 45 44 45 47 48 49 50 50 54 52 50
42 42 42 42 45 45 47 46 47 44 40 37 35 36 34 28 34 35 35 32 31 33 35 33 33 31 31 30 31 33 42 44 41 41 38 36 44 39 38 35 40 32 32 30 38 38 37 39 40 40 42 45 45 46 47 48 48 48 49 50 50 49 49 49 48 48 47 47 48 48 48 49 47 47 47 48 48 48 49 50 50 51 52 51 51 51 51
45 45 47 47 46 46 46 46 44 39 37 37 33 27 28 31 34 33 34 29 29 30 30 31 34 33 33 32 36 36 40 39 40 39 36 35 40 35 36 38 37 32 29 35 42 38 38 38 39 40 44 46 46 47 47 47 49 48 48 49 49 49 49 49 48 49 49 49 49 49 49 49 49 49 50 50 50 50 51 51 50 50 52 53 53 52 52
48 48 47 46 45 43 42 34 37 37 28 26 24 21 27 23 26 26 30 32 31 29 33 28 32 33 33 35 36 37 35 40 39 40 36 33 40 37 36 33 33 23 32 39 34 36 38 39 39 41 44 45 46 47 47 48 48 49 49 49 49 49 49 49 49 49 49 49 49 49 50 50 50 50 50 51 52 51 51 52 52 53 53 54 54 54 55
47 46 45 44 38 39 40 29 37 35 29 26 23 19 25 24 27 27 27 28 32 33 33 31 34 28 30 35 37 37 38 40 41 40 38 37 33 33 31 28 31 33 32 33 35 37 38 40 42 42 44 46 46 48 48 48 48 49 49 49 49 49 49 49 49 49 49 50 50 51 51 51 50 51 52 52 52 51 51 53 55 55 55 55 55 56 56
42 37 36 34 31 35 31 27 30 28 24 26 28 27 27 23 27 28 26 32 34 35 37 39 39 38 38 41 40 35 36 36 42 37 32 35 34 35 30 28 36 34 29 32 36 38 40 40 42 45 46 46 47 48 49 49 49 49 49 49 49 49 49 49 49 49 50 50 51 51 51 51 51 51 52 51 52 53 54 54 55 55 55 55 55 55 55
39 35 33 30 27 29 30 27 28 25 29 32 29 29 29 29 33 37 36 35 37 36 36 38 41 43 37 39 38 36 42 41 35 36 37 36 31 27 33 39 36 29 31 33 36 38 40 42 44 44 45 47 47 48 48 49 49 49 49 49 49 49 50 50 50 50 51 51 51 51 51 52 52 52 52 52 53 54 54 54 55 55 55 54 54 55 55
36 39 35 33 28 29 33 28 28 28 32 32 32 32 28 31 34 34 41 38 37 38 40 42 40 41 38 36 38 37 38 38 35 36 36 33 30 33 35 32 29 28 30 35 37 39 40 43 45 46 47 48 48 49 49 49 49 49 49 49 50 49 50 50 51 51 51 51 51 52 52 53 53 53 54 53 53 53 54 55 55 55 55 54 54 54 54
33 36 34 26 25 28 28 30 34 33 31 32 29 34 38 39 40 41 39 41 40 38 38 42 40 39 37 41 39 33 36 35 36 34 37 36 35 30 24 31 30 36 37 38 39 41 42 43 45 46 47 49 49 49 49 49 49 49 49 49 49 50 50 50 50 51 52 52 52 52 52 52 53 52 52 53 53 53 54 54 55 54 54 53 54 54 54
40 36 32 29 31 29 30 34 34 32 33 35 35 38 35 35 37 37 39 41 39 39 40 40 41 41 36 35 35 34 30 34 29 27 34 31 29 25 25 24 34 35 39 42 41 43 44 45 48 48 49 49 49 49 49 49 50 50 50 49 49 49 50 51 51 51 52 52 52 52 52 53 52 52 53 53 52 53 53 54 53 53 54 54 54 54 54
35 32 35 30 31 32 33 34 33 32 34 37 37 36 36 36 37 37 41 42 41 41 43 43 41 35 33 33 26 28 29 33 31 28 31 28 29 28 30 34 36 38 39 42 43 44 46 47 47 47 48 49 50 49 49 49 51 51 50 50 50 50 50 51 51 51 51 51 52 52 53 53 52 52 52 52 53 53 53 53 54 53 53 54 54 53 54
35 32 34 37 32 31 36 33 33 34 35 36 37 37 37 39 40 39 40 43 42 40 39 34 32 30 27 26 24 19 20 32 30 28 28 28 29 33 35 36 38 40 41 44 46 46 47 48 48 48 48 48 49 49 49 50 50 50 50 50 50 50 50 51 51 51 51 51 51 56 52 52 52 52 52 53 52 52 52 52 54 53 53 53 53 53 53
29 28 31 36 40 39 40 40 40 37 38 38 38 38 40 38 40 42 44 43 41 37 34 36 31 26 23 23 26 27 33 29 27 32 34 36 37 36 37 38 41 43 44 45 45 46 49 48 49 50 48 50 51 49 50 51 51 50 50 50 50 50 51 51 51 50 50 51 51 50 51 52 52 52 52 52 51 51 50 51 53 53 53 53 53 54 54